Date String (YYYY-MM-DD hh:mm:ss) UTC,Instrument flags,Ambient pressure (hPa),Sample flow (lpm),Bypass flow (lpm),Sample temperature (°C),Ambient temperature (°C),ASC tube jacket temperature (°C),LED temperature (°C),Box temperature (°C),Sample RH (%),Span deviation,Mass concentration (μg/m³),Mass concentration (μg/m³),Mass concentration (μg/m³)
DateTimeUTC,F1_M11,P_M11,Q1_M11,Q2_M11,T1_M11,T2_M11,T3_M11,T4_M11,T5_M11,U1_M11,ZSPAN_M11,X0_M11,X2_M11,X1_M11
2023-04-25 21:00:00,,0824.9,5.01,0.00,26.3,24.5,00.0,34.9,27.9,19.0,0000.0,0007.58,0002.25,0001.52
2023-04-25 21:01:00,,0824.8,5.00,0.00,26.3,24.5,00.0,34.9,27.8,18.9,0000.0,0007.39,0002.27,0001.51
2023-04-25 21:02:00,,0824.8,5.00,0.00,26.3,24.4,00.0,34.9,27.8,19.0,0000.0,0007.73,0002.26,0001.49
2023-04-25 21:03:00,,0824.8,5.00,0.00,26.3,24.4,00.0,34.9,27.8,19.0,0000.0,0008.49,0002.25,0001.50
2023-04-25 21:04:00,,0824.9,5.00,0.00,26.2,24.4,00.0,34.8,27.8,19.0,0000.0,0008.81,0002.32,0001.51
2023-04-25 21:05:00,,0824.9,4.99,0.00,26.2,24.3,00.0,34.8,27.7,19.1,0000.0,0009.27,0002.35,0001.51
2023-04-25 21:06:00,,0824.9,5.00,0.00,26.2,24.3,00.0,34.8,27.7,19.1,0000.0,0009.55,0002.33,0001.51
2023-04-25 21:07:00,,0824.9,5.00,0.00,26.2,24.4,00.0,34.8,27.7,19.0,0000.0,0009.32,0002.34,0001.50
2023-04-25 21:08:00,,0824.8,5.00,0.00,26.2,24.4,00.0,34.8,27.7,19.0,0000.0,0009.34,0002.35,0001.50
2023-04-25 21:09:00,,0824.9,5.00,0.00,26.2,24.4,00.0,34.8,27.7,19.0,0000.0,0009.30,0002.33,0001.52
2023-04-25 21:10:00,,0824.9,5.00,0.00,26.2,24.4,00.0,34.7,27.7,19.0,0000.0,0009.06,0002.30,0001.52
2023-04-25 21:11:00,,0824.9,5.00,0.00,26.1,24.4,00.0,34.7,27.7,19.2,0000.0,0008.47,0002.31,0001.50
2023-04-25 21:12:00,,0824.9,5.00,0.00,26.1,24.4,00.0,34.7,27.7,19.3,0000.0,0008.18,0002.25,0001.50
2023-04-25 21:13:00,,0824.9,5.00,0.00,26.1,24.5,00.0,34.7,27.7,19.3,0000.0,0008.09,0002.27,0001.50
2023-04-25 21:14:00,,0824.9,5.00,0.00,26.1,24.5,00.0,34.7,27.7,19.4,0000.0,0007.02,0002.33,0001.50
2023-04-25 21:15:00,,0824.9,5.01,0.00,26.1,24.5,00.0,34.7,27.7,19.2,0000.0,0006.33,0002.32,0001.51
2023-04-25 21:16:00,,0825.0,5.00,0.00,26.1,24.5,00.0,34.7,27.7,19.1,0000.0,0005.50,0002.27,0001.49
2023-04-25 21:17:00,,0825.1,4.99,0.00,26.1,24.5,00.0,34.7,27.7,19.0,0000.0,0004.47,0002.27,0001.46
2023-04-25 21:18:00,,0825.1,4.99,0.00,26.1,24.5,00.0,34.7,27.7,19.2,0000.0,0004.38,0002.25,0001.44
2023-04-25 21:19:00,,0825.1,5.01,0.00,26.1,24.5,00.0,34.6,27.7,19.3,0000.0,0004.51,0002.28,0001.42
2023-04-25 21:20:00,,0825.1,5.01,0.00,26.1,24.5,00.0,34.6,27.7,19.3,0000.0,0004.42,0002.23,0001.38
2023-04-25 21:21:00,,0825.1,5.01,0.00,26.1,24.4,00.0,34.6,27.6,19.2,0000.0,0004.24,0002.17,0001.35
2023-04-25 21:22:00,,0825.1,4.99,0.00,26.1,24.4,00.0,34.6,27.6,19.2,0000.0,0003.91,0002.12,0001.32
2023-04-25 21:23:00,,0825.1,4.99,0.00,26.1,24.4,00.0,34.6,27.6,19.0,0000.0,0004.07,0002.14,0001.29
2023-04-25 21:24:00,,0825.2,4.99,0.00,26.1,24.4,00.0,34.6,27.6,18.9,0000.0,0004.05,0002.13,0001.27
2023-04-25 21:25:00,,0825.2,5.00,0.00,26.0,24.4,00.0,34.6,27.6,18.9,0000.0,0004.04,0002.11,0001.25
2023-04-25 21:26:00,,0825.2,5.00,0.00,26.0,24.4,00.0,34.6,27.6,18.9,0000.0,0004.06,0002.11,0001.25
2023-04-25 21:27:00,,0825.3,5.00,0.00,26.0,24.4,00.0,34.6,27.6,18.9,0000.0,0004.03,0002.11,0001.27
2023-04-25 21:28:00,,0825.2,5.00,0.00,26.0,24.4,00.0,34.6,27.6,18.9,0000.0,0004.14,0002.12,0001.28
2023-04-25 21:29:00,,0825.3,5.00,0.00,26.0,24.4,00.0,34.6,27.6,18.6,0000.0,0004.11,0002.14,0001.31
2023-04-25 21:30:00,,0825.3,5.00,0.00,26.0,24.4,00.0,34.5,27.6,18.7,0000.0,0004.00,0002.12,0001.33
2023-04-25 21:31:00,,0825.2,5.00,0.00,26.0,24.4,00.0,34.5,27.6,18.9,0000.0,0004.10,0002.19,0001.38
2023-04-25 21:32:00,,0825.2,5.00,0.00,26.0,24.4,00.0,34.5,27.6,19.0,0000.0,0004.21,0002.24,0001.42
2023-04-25 21:33:00,,0825.2,4.99,0.00,26.0,24.4,00.0,34.5,27.6,19.1,0000.0,0004.12,0002.24,0001.46
2023-04-25 21:34:00,,0825.3,5.00,0.00,26.0,24.4,00.0,34.5,27.6,19.1,0000.0,0003.99,0002.25,0001.49
2023-04-25 21:35:00,,0825.3,5.01,0.00,26.0,24.4,00.0,34.5,27.5,19.1,0000.0,0003.80,0002.25,0001.54
2023-04-25 21:36:00,,0825.3,5.00,0.00,26.0,24.4,00.0,34.5,27.6,19.2,0000.0,0003.80,0002.28,0001.57
2023-04-25 21:37:00,,0825.3,5.00,0.00,26.0,24.4,00.0,34.5,27.6,19.0,0000.0,0004.14,0002.35,0001.58
2023-04-25 21:38:00,,0825.3,4.99,0.00,26.0,24.4,00.0,34.5,27.6,18.9,0000.0,0005.48,0002.40,0001.59
2023-04-25 21:39:00,,0825.2,5.00,0.00,26.0,24.4,00.0,34.5,27.6,19.0,0000.0,0005.92,0002.44,0001.60
2023-04-25 21:40:00,,0825.3,5.00,0.00,26.0,24.4,00.0,34.5,27.6,18.9,0000.0,0006.54,0002.41,0001.60
2023-04-25 21:41:00,,0825.3,5.01,0.00,26.0,24.4,00.0,34.5,27.6,18.9,0000.0,0007.50,0002.48,0001.60
2023-04-25 21:42:00,,0825.3,4.99,0.00,26.0,24.4,00.0,34.5,27.5,18.9,0000.0,0007.50,0002.49,0001.59
2023-04-25 21:43:00,,0825.3,5.00,0.00,26.0,24.4,00.0,34.5,27.5,19.1,0000.0,0007.56,0002.49,0001.58
2023-04-25 21:44:00,,0825.3,5.00,0.00,26.0,24.4,00.0,34.5,27.5,19.3,0000.0,0007.58,0002.50,0001.58
2023-04-25 21:45:00,,0825.3,5.00,0.00,26.0,24.4,00.0,34.5,27.6,19.3,0000.0,0007.60,0002.51,0001.59
2023-04-25 21:46:00,,0825.3,5.00,0.00,26.0,24.4,00.0,34.5,27.6,19.3,0000.0,0007.63,0002.52,0001.59
2023-04-25 21:47:00,,0825.3,5.00,0.00,26.0,24.4,00.0,34.4,27.6,19.4,0000.0,0007.65,0002.49,0001.58
2023-04-25 21:48:00,,0825.4,5.00,0.00,26.0,24.4,00.0,34.4,27.6,19.4,0000.0,0007.35,0002.38,0001.57
2023-04-25 21:49:00,,0825.4,5.00,0.00,26.0,24.4,00.0,34.4,27.5,19.3,0000.0,0006.28,0002.32,0001.56
2023-04-25 21:50:00,,0825.4,4.99,0.00,26.0,24.5,00.0,34.4,27.6,19.2,0000.0,0005.45,0002.23,0001.54
2023-04-25 21:51:00,,0825.4,5.01,0.00,26.0,24.5,00.0,34.4,27.6,19.1,0000.0,0004.86,0002.23,0001.54
2023-04-25 21:52:00,,0825.5,5.01,0.00,26.0,24.5,00.0,34.4,27.6,19.1,0000.0,0003.64,0002.18,0001.53
2023-04-25 21:53:00,,0825.5,4.98,0.00,26.0,24.4,00.0,34.4,27.6,19.1,0000.0,0003.61,0002.15,0001.53
2023-04-25 21:54:00,,0825.5,5.01,0.00,26.0,24.4,00.0,34.4,27.6,19.2,0000.0,0003.63,0002.18,0001.55
2023-04-25 21:55:00,,0825.5,5.00,0.00,26.0,24.4,00.0,34.4,27.6,19.5,0000.0,0003.58,0002.19,0001.55
2023-04-25 21:56:00,,0825.5,5.00,0.00,26.0,24.4,00.0,34.4,27.6,19.6,0000.0,0003.54,0002.17,0001.54
2023-04-25 21:57:00,,0825.5,5.00,0.00,26.0,24.4,00.0,34.4,27.6,19.6,0000.0,0003.52,0002.17,0001.54
2023-04-25 21:58:00,,0825.5,5.00,0.00,26.0,24.4,00.0,34.4,27.6,19.7,0000.0,0003.39,0002.15,0001.55
2023-04-25 21:59:00,,0825.6,4.97,0.00,26.0,24.4,00.0,34.4,27.6,20.0,0000.0,0003.60,0002.23,0001.58
